TimeEST,TemperatureF,Dew PointF,Humidity,Sea Level PressureIn,VisibilityMPH,Wind Direction,Wind SpeedMPH,Gust SpeedMPH,PrecipitationIn,Events,Conditions,WindDirDegrees,DateUTC
12:15 AM,10.4,6.8,85,29.63,10.0,Calm,Calm,-,N/A,,Clear,0,2013-12-16 05:15:00
12:35 AM,8.6,5.0,85,29.63,10.0,Calm,Calm,-,N/A,,Clear,0,2013-12-16 05:35:00
12:55 AM,6.8,1.4,79,29.63,10.0,Calm,Calm,-,N/A,,Clear,0,2013-12-16 05:55:00
1:15 AM,6.8,1.4,79,29.63,10.0,Calm,Calm,-,N/A,,Clear,0,2013-12-16 06:15:00
1:35 AM,8.6,8.6,100,29.64,10.0,Calm,Calm,-,N/A,,Clear,0,2013-12-16 06:35:00
1:55 AM,3.2,-5.8,66,29.65,10.0,Calm,Calm,-,N/A,,Clear,0,2013-12-16 06:55:00
2:15 AM,6.8,6.8,100,29.66,10.0,Calm,Calm,-,N/A,,Clear,0,2013-12-16 07:15:00
2:35 AM,1.4,-0.4,92,29.66,10.0,Calm,Calm,-,N/A,,Clear,0,2013-12-16 07:35:00
2:55 AM,1.4,-0.4,92,29.67,10.0,NNE,3.5,-,N/A,,Clear,20,2013-12-16 07:55:00
3:15 AM,3.2,-0.4,85,29.67,10.0,Calm,Calm,-,N/A,,Clear,0,2013-12-16 08:15:00
3:35 AM,-0.4,-7.6,72,29.68,10.0,Calm,Calm,-,N/A,,Clear,0,2013-12-16 08:35:00
3:55 AM,-0.4,-0.4,100,29.67,10.0,Calm,Calm,-,N/A,,Clear,0,2013-12-16 08:55:00
4:15 AM,-0.4,-9.4,66,29.68,10.0,Calm,Calm,-,N/A,,Clear,0,2013-12-16 09:15:00
4:35 AM,-0.4,-2.2,92,29.68,10.0,Calm,Calm,-,N/A,,Clear,0,2013-12-16 09:35:00
4:55 AM,-0.4,-2.2,92,29.69,10.0,NNE,5.8,-,N/A,,Clear,20,2013-12-16 09:55:00
5:15 AM,-0.4,-4.0,85,29.70,4.0,North,4.6,-,N/A,,Clear,10,2013-12-16 10:15:00
5:35 AM,1.4,1.4,100,29.71,9.0,Calm,Calm,-,N/A,,Clear,0,2013-12-16 10:35:00
5:55 AM,-2.2,-14.8,55,29.72,3.0,Calm,Calm,-,N/A,,Clear,0,2013-12-16 10:55:00
6:15 AM,-2.2,-4.0,92,29.73,5.0,Calm,Calm,-,N/A,,Scattered Clouds,0,2013-12-16 11:15:00
6:35 AM,-2.2,-9.4,71,29.73,3.0,Calm,Calm,-,N/A,,Mostly Cloudy,0,2013-12-16 11:35:00
6:55 AM,-2.2,-2.2,100,29.74,1.2,Calm,Calm,-,N/A,,Mostly Cloudy,0,2013-12-16 11:55:00
7:15 AM,-0.4,-7.6,72,29.75,1.8,North,3.5,-,N/A,,Clear,10,2013-12-16 12:15:00
7:35 AM,1.4,-0.4,92,29.76,1.0,North,3.5,-,N/A,,Clear,10,2013-12-16 12:35:00
7:55 AM,1.4,-2.2,85,29.78,2.0,Calm,Calm,-,N/A,,Clear,0,2013-12-16 12:55:00
8:15 AM,1.4,-7.6,66,29.79,0.8,Calm,Calm,-,N/A,,Unknown,0,2013-12-16 13:15:00
8:35 AM,3.2,3.2,100,29.81,0.5,Calm,Calm,-,N/A,,Unknown,0,2013-12-16 13:35:00
8:55 AM,5.0,5.0,100,29.83,7.0,Calm,Calm,-,N/A,,Clear,0,2013-12-16 13:55:00
9:15 AM,8.6,6.8,92,29.84,7.0,NNW,4.6,-,N/A,,Clear,330,2013-12-16 14:15:00
9:35 AM,14.0,14.0,100,29.85,10.0,NW,10.4,-,N/A,,Clear,310,2013-12-16 14:35:00
9:55 AM,15.8,10.4,79,29.86,10.0,NW,9.2,-,N/A,,Clear,310,2013-12-16 14:55:00
10:15 AM,17.6,8.6,68,29.86,10.0,NW,8.1,-,N/A,,Clear,320,2013-12-16 15:15:00
10:35 AM,19.4,8.6,63,29.86,10.0,West,6.9,-,N/A,,Clear,280,2013-12-16 15:35:00
10:55 AM,21.2,6.8,54,29.85,10.0,West,9.2,-,N/A,,Clear,280,2013-12-16 15:55:00
11:15 AM,21.2,1.4,42,29.86,10.0,West,13.8,21.9,N/A,,Clear,270,2013-12-16 16:15:00
11:35 AM,21.2,3.2,46,29.86,10.0,West,12.7,17.3,N/A,,Clear,280,2013-12-16 16:35:00
11:55 AM,21.2,-0.4,39,29.85,10.0,WNW,12.7,18.4,N/A,,Clear,290,2013-12-16 16:55:00
12:15 PM,21.2,1.4,42,29.85,10.0,West,9.2,-,N/A,,Clear,280,2013-12-16 17:15:00
12:35 PM,23.0,1.4,39,29.85,10.0,West,10.4,16.1,N/A,,Partly Cloudy,270,2013-12-16 17:35:00
12:55 PM,23.0,1.4,39,29.84,10.0,West,11.5,20.7,N/A,,Partly Cloudy,260,2013-12-16 17:55:00
1:15 PM,21.2,-0.4,39,29.84,10.0,WSW,12.7,23.0,N/A,,Mostly Cloudy,250,2013-12-16 18:15:00
1:35 PM,23.0,1.4,39,29.85,10.0,WNW,8.1,-,N/A,,Mostly Cloudy,290,2013-12-16 18:35:00
1:55 PM,21.2,-0.4,39,29.86,10.0,NW,10.4,17.3,N/A,,Mostly Cloudy,320,2013-12-16 18:55:00
2:15 PM,21.2,-0.4,39,29.87,10.0,NW,8.1,-,N/A,,Partly Cloudy,310,2013-12-16 19:15:00
2:35 PM,21.2,-0.4,39,29.88,10.0,WNW,9.2,18.4,N/A,,Clear,290,2013-12-16 19:35:00
2:55 PM,21.2,-2.2,36,29.89,10.0,WNW,9.2,19.6,N/A,,Clear,300,2013-12-16 19:55:00
3:15 PM,19.4,-4.0,36,29.90,10.0,WNW,18.4,27.6,N/A,,Clear,290,2013-12-16 20:15:00
3:35 PM,19.4,-5.8,33,29.92,7.0,WNW,16.1,29.9,N/A,,Clear,300,2013-12-16 20:35:00
3:55 PM,19.4,-5.8,33,29.93,9.0,NW,16.1,26.5,N/A,,Clear,310,2013-12-16 20:55:00
4:15 PM,17.6,-5.8,35,29.94,10.0,NW,6.9,18.4,N/A,,Clear,320,2013-12-16 21:15:00
4:35 PM,15.8,-2.2,45,29.96,10.0,North,8.1,-,N/A,,Clear,10,2013-12-16 21:35:00
4:55 PM,15.8,-4.0,41,29.97,10.0,NNW,9.2,-,N/A,,Clear,340,2013-12-16 21:55:00
5:15 PM,15.8,-4.0,41,29.98,10.0,NNW,8.1,-,N/A,,Clear,330,2013-12-16 22:15:00
5:35 PM,15.8,-4.0,41,29.98,10.0,NW,10.4,-,N/A,,Clear,320,2013-12-16 22:35:00
5:55 PM,15.8,-5.8,38,29.99,10.0,WNW,4.6,-,N/A,,Clear,300,2013-12-16 22:55:00
6:15 PM,12.2,-5.8,45,30.01,10.0,North,4.6,-,N/A,,Clear,10,2013-12-16 23:15:00
6:35 PM,12.2,-5.8,45,30.03,10.0,NW,9.2,-,N/A,,Clear,310,2013-12-16 23:35:00
6:55 PM,12.2,-4.0,48,30.04,10.0,WNW,9.2,-,N/A,,Clear,290,2013-12-16 23:55:00
7:15 PM,12.2,-5.8,45,30.04,10.0,NW,6.9,-,N/A,,Clear,310,2013-12-17 00:15:00
7:35 PM,12.2,-5.8,45,30.05,10.0,North,10.4,-,N/A,,Clear,360,2013-12-17 00:35:00
7:55 PM,10.4,-5.8,48,30.06,10.0,North,15.0,-,N/A,,Clear,360,2013-12-17 00:55:00
8:15 PM,10.4,-5.8,48,30.07,10.0,NNW,13.8,17.3,N/A,,Clear,330,2013-12-17 01:15:00
8:35 PM,10.4,-5.8,48,30.08,10.0,NNW,9.2,16.1,N/A,,Clear,340,2013-12-17 01:35:00
8:55 PM,10.4,-5.8,48,30.09,10.0,NNW,6.9,-,N/A,,Clear,340,2013-12-17 01:55:00
9:15 PM,8.6,-7.6,48,30.10,10.0,North,10.4,-,N/A,,Clear,360,2013-12-17 02:15:00
9:35 PM,8.6,-7.6,48,30.12,10.0,North,6.9,-,N/A,,Clear,360,2013-12-17 02:35:00
9:55 PM,8.6,-7.6,48,30.13,10.0,NNW,9.2,-,N/A,,Clear,340,2013-12-17 02:55:00
10:15 PM,6.8,-7.6,52,30.14,10.0,NNW,6.9,-,N/A,,Clear,340,2013-12-17 03:15:00
10:35 PM,6.8,-9.4,48,30.16,10.0,North,4.6,-,N/A,,Clear,360,2013-12-17 03:35:00
10:55 PM,5.0,-9.4,52,30.16,10.0,NW,9.2,-,N/A,,Clear,310,2013-12-17 03:55:00
11:15 PM,5.0,-9.4,52,30.16,10.0,North,6.9,-,N/A,,Clear,360,2013-12-17 04:15:00
11:35 PM,3.2,-11.2,51,30.16,10.0,North,5.8,-,N/A,,Clear,360,2013-12-17 04:35:00
11:55 PM,3.2,-9.4,56,30.17,10.0,North,4.6,-,N/A,,Clear,360,2013-12-17 04:55:00